Regional Weather Roundup
Issued by NWS Upton, NY

Current Version | Previous Version | Text Only | Print | Product List | Glossary On
Versions: 1 2 3 4 5 6 7 8 9 10 11 12 13 14 15 16 17 18 19 20 21 22 23 24 25 26 27
000 ASUS41 KOKX 280609 RWROKX REGIONAL WEATHER ROUNDUP NATIONAL WEATHER SERVICE NEW YORK NY 200 AM EDT WED JUN 28 2017 NOTE: "FAIR" INDICATES FEW OR NO CLOUDS BELOW 12,000 FEET WITH NO SIGNIFICANT WEATHER AND/OR OBSTRUCTIONS TO VISIBILITY. NYZ071-072-176-178-NJZ106-104-280700- NEW YORK CITY METRO AREA CITY SKY/WX TMP DP RH WIND PRES REMARKS Central Park CLEAR 66 49 54 VRB6 30.06R Bronx Bot Gard N/A 64 46 52 NW1 30.03S LaGuardia APRT CLEAR 67 52 58 NW12 30.02S Kennedy INTL PTCLDY 67 49 52 NW12 30.03S Breezy Point N/A 64 N/A N/A NW9G15 N/A Newark/Liberty CLEAR 64 50 60 NW7 30.03S Teterboro CLEAR 62 50 64 NW5 30.02S $$ NYZ177-179-078>081-280700- LONG ISLAND NEW YORK CITY SKY/WX TMP DP RH WIND PRES REMARKS Jones Beach N/A 64 N/A N/A NW6 N/A Matinecock PT N/A N/A N/A N/A NW1 N/A Farmingdale NOT AVBL MacArthur/ISP CLOUDY 61 54 77 NW6 30.01R Shirley PTCLDY 57 56 96 CALM 30.01S Mt Sinai Harb N/A N/A N/A N/A CALM N/A Westhampton MOCLDY 52 49 89 CALM 30.02S East Hampton FAIR 56 51 82 CALM 30.00S Montauk N/A 63 57 81 CALM 30.01S $$ NYZ052-065-067-280700- HUDSON VALLEY CITY SKY/WX TMP DP RH WIND PRES REMARKS White Plains PTCLDY 57 53 86 NW6 30.02S Larchmont Harb N/A 63 N/A N/A W7 N/A Croton O-T Hud N/A 59 N/A N/A N2 N/A Newburgh CLEAR 55 52 88 W9 30.04R Montgomery CLEAR 53 50 89 SW6 30.04R Poughkeepsie CLEAR 54 50 86 CALM 30.01S Albany MOCLDY 54 51 90 SW3 30.01R $$ NJZ001-105-106-008-010-013-015-019>022-104-280700- NEW JERSEY CITY SKY/WX TMP DP RH WIND PRES REMARKS Newark/Liberty CLEAR 64 50 60 NW7 30.03S Teterboro CLEAR 62 50 64 NW5 30.02S Caldwell CLEAR 60 52 74 CALM 30.05R Somerville PTCLDY 54 53 97 CALM 30.04R Linden FAIR 61 52 72 CALM 30.04S Perth Amboy N/A 63 N/A N/A W7 N/A Sussex CLEAR 51 51 100 CALM 30.06R Andover N/A 53 51 93 CALM 30.06R Trenton PTCLDY 62 49 62 NW5 30.06R Millville CLEAR 59 53 80 CALM 30.07S Atlantic City CLEAR 62 51 67 W7 30.06 Wrightstown CLEAR 62 49 63 NW7 30.03S Toms River CLEAR 61 49 64 NW7 30.06R Belmar CLEAR 62 50 64 W7 30.05R $$ PAZ047>061-062-071-280700- EASTERN PENNSYLVANIA CITY SKY/WX TMP DP RH WIND PRES REMARKS Philadelphia CLEAR 66 48 52 NW8 30.08R Allentown CLEAR 55 48 77 SW7 30.06S Scranton CLEAR 57 50 77 SW6 30.07R $$ CTZ002-004>006-009-010-012-RIZ004-006-007-MAZ004-011-015-280700- SOUTHERN NEW ENGLAND IN CT CITY SKY/WX TMP DP RH WIND PRES REMARKS Bradley INTL PTCLDY 53 50 89 CALM 30.01F Hartford FOG 57 56 96 CALM 30.00F VSB 1/2 Danbury NOT AVBL Wtrbury/Oxford CLEAR 52 45 76 CALM 30.02S Bridgeport CLEAR 62 51 67 CALM 30.01S Meriden CLEAR 51 51 100 S3 30.01S New Haven CLEAR 57 51 80 CALM 30.01S Chester FAIR 57 48 72 CALM 30.01S Groton PTCLDY 57 53 86 N3 29.99F Wilimantic FOG 53 52 96 CALM 30.01F VSB 1/4 IN RI CITY SKY/WX TMP DP RH WIND PRES REMARKS Providence PTCLDY 58 52 80 W6 29.99F Block Island MOCLDY 61 53 75 NW6 30.00S Westerly MOCLDY 60 53 77 CALM 30.00F IN MA CITY SKY/WX TMP DP RH WIND PRES REMARKS Boston PTCLDY 59 52 77 W12 29.97F Worcester CLEAR 52 48 86 W10 30.00S Westfield CLEAR 50 50 100 CALM N/A Provincetown CLOUDY 60 54 80 W8 29.97F Nantucket CLOUDY 64 63 96 W5 29.97S $$ ANZ330-335-338-340-345-350-353-355-280700- COASTAL MARINE OBSERVATIONS STATION/POSITION TIME SKY/WX TEMP WIND PRES VSBY WAVE AIR SEA DIR/SP/G HT/PER (UTC) (F) (DEG/KT/KT) (MB) (MI) (FT/S) NY HARB ENTRANCE 0450 68 69 280/ 8/ 10 1016.0 1/ 8 20 S FIRE ISLAND 0550 70 70 290/ 10/ 12 1015.5 2/ 4 GREAT SOUTH BAY 0530 67 75 350/ 8/ 10 N/A 23 SSW MONTAUK P 0450 66 65 1015.9 2/ 4 15 E BARNEGAT LI 0530 65 N/A 2/ 3 HUDSON CANYON 0450 70 68 270/ 10/ 12 1015.3 2/ 3 KINGS POINT 0542 360/ 11/ 13 1016.6 EXECUTION ROCKS 0545 64 300/ 2/ 6 N/A CENTRAL LI SOUND NOT AVBL EASTERN LI SOUND NOT AVBL ROBBINS REEF 0542 310/ 10/ 13 1017.4 $$ >>>>>>>>>>>>>>>>>>>>>>>>>>>> KEY <<<<<<<<<<<<<<<<<<<<<<<<<<< > < > SKY/WX - Sky Condition/Present Weather < > TMP - Temperature in Fahrenheit < > DP - Dew Point in Fahrenheit < > RH - Relative Humidity in Percent < > WIND - Direction (from) and Speed in MPH < > PRES - Mean Sea Level Pressure (inches of Hg) < > WCI - Wind Chill Index < > VSB - VISIBILITY IN MILES < > HX - HEAT INDEX < > TC - TEMPERATURE IN CELSIUS < > VRB - VARIABLE WIND DIRECTION < > < >>>>>>>>>>>>>>>>>>>>>>>>>>>> KEY <<<<<<<<<<<<<<<<<<<<<<<<<<<

USA.gov is the U.S. government's official web portal to all federal, state and local government web resources and services.